Weather History for KOCQ - February, 2014

Change the Weather History Date:

Tuesday, February 18, 2014

  Actual Average Record
Temperature  
Mean Temperature 14 °F -  
Max Temperature 32 °F 30 °F 32 °F (2014)
Min Temperature -4 °F 10 °F -11 °F (2015)
Degree Days  
Heating Degree Days 51    
Moisture  
Dew Point 13 °F    
Average Humidity 89    
Maximum Humidity 98    
Minimum Humidity 77    
Precipitation  
Precipitation 0.01 in - - ()
Sea Level Pressure  
Sea Level Pressure 29.69 in    
Wind  
Wind Speed 2 mph (South)    
Max Wind Speed 12 mph    
Max Gust Speed 17 mph    
Visibility 6 miles    
Events      
Averages and records for this station are not official NWS values.
T = Trace of Precipitation, MM = Missing Value Source: NWS Daily Summary

Daily Weather History Graph

Daily Weather History Graph

Search for Another Location

Airport or City:

Trip Planner

Search our weather history database for the weather conditions in past years. The results will help you decide how hot, cold, wet, or windy it might be!

Date:

Astronomy

Feb. 18, 2014 Rise Set
Actual Time 6:47 AM CST 5:24 PM CST
Civil Twilight 6:17 AM CST 5:54 PM CST
Nautical Twilight 5:43 AM CST 6:28 PM CST
Astronomical Twilight 5:09 AM CST 7:02 PM CST
Moon 9:29 PM CST (2/18) 8:09 AM CST (2/18)
Length of Visible Light 11h 36m
Length of Day
10h 36m
Waning Gibbous, 87% of the Moon is Illuminated
Feb 18
Waning Gibbous
Feb 22
Last Quarter
Mar 1
New
Mar 8
First Quarter
Mar 16
Full

Hourly Weather History & Observations

Time (CST) Temp. Windchill Dew Point Humidity Pressure Visibility Wind Dir Wind Speed Gust Speed Precip Events Conditions
12:15 AM 8.6 °F 2.0 °F 6.4 °F 91% 29.77 in 10.0 mi WNW 3.5 mph - N/A   Clear
12:35 AM 8.8 °F - 6.6 °F 91% 29.78 in 7.0 mi Calm Calm - N/A   Clear
12:55 AM 10.0 °F - 7.9 °F 91% 29.78 in 3.0 mi Calm Calm - N/A   Clear
1:15 AM 8.4 °F - 6.1 °F 90% 29.79 in 10.0 mi Calm Calm - N/A   Clear
1:35 AM 4.1 °F - 0.7 °F 86% 29.79 in 10.0 mi Calm Calm - N/A   Clear
1:55 AM 5.4 °F - 2.7 °F 89% 29.80 in 7.0 mi Calm Calm - N/A   Clear
2:15 AM 4.5 °F - 1.8 °F 89% 29.80 in 4.0 mi Calm Calm - N/A   Clear
2:35 AM 0.9 °F - -2.2 °F 87% 29.80 in 10.0 mi Calm Calm - N/A   Clear
2:55 AM 1.8 °F - -1.7 °F 86% 29.81 in 10.0 mi Calm Calm - N/A   Clear
3:15 AM -2.4 °F - -6.0 °F 85% 29.81 in 10.0 mi Calm Calm - N/A   Clear
3:35 AM -4.0 °F -12.4 °F -7.8 °F 84% 29.81 in 10.0 mi West 3.5 mph - N/A   Clear
3:55 AM -0.6 °F - -3.6 °F 87% 29.82 in 10.0 mi Calm Calm - N/A   Clear
4:15 AM -2.0 °F - -5.4 °F 85% 29.82 in 10.0 mi Calm Calm - N/A   Clear
4:35 AM -4.5 °F - -8.1 °F 84% 29.82 in 10.0 mi Calm Calm - N/A   Mostly Cloudy
4:55 AM -1.3 °F - -4.4 °F 87% 29.82 in 10.0 mi Calm Calm - N/A   Overcast
5:15 AM 0.9 °F - -2.2 °F 87% 29.82 in 10.0 mi Calm Calm - N/A   Overcast
5:35 AM -0.0 °F - -3.5 °F 85% 29.80 in 10.0 mi Calm Calm - N/A   Mostly Cloudy
5:55 AM -0.6 °F - -3.8 °F 86% 29.80 in 10.0 mi Calm Calm - N/A   Mostly Cloudy
6:15 AM 2.8 °F - -0.0 °F 88% 29.81 in 10.0 mi Calm Calm - N/A   Overcast
6:35 AM 2.3 °F - -1.1 °F 86% 29.81 in 10.0 mi Calm Calm - N/A   Overcast
6:55 AM 4.1 °F - 1.4 °F 89% 29.81 in 10.0 mi Calm Calm - N/A   Overcast
7:15 AM 4.8 °F - 2.1 °F 89% 29.81 in 10.0 mi Calm Calm - N/A   Overcast
7:35 AM 6.6 °F - 4.5 °F 91% 29.81 in 10.0 mi Calm Calm - N/A   Overcast
7:55 AM 11.5 °F - 9.3 °F 91% 29.81 in 7.0 mi Calm Calm - N/A   Overcast
8:15 AM 11.3 °F - 9.3 °F 92% 29.80 in 7.0 mi Calm Calm - N/A   Overcast
8:35 AM 12.9 °F - 10.9 °F 92% 29.79 in 7.0 mi Calm Calm - N/A   Overcast
8:55 AM 16.0 °F - 14.5 °F 94% 29.80 in 5.0 mi Calm Calm - N/A   Overcast
9:15 AM 18.1 °F 10.0 °F 16.7 °F 94% 29.80 in 4.0 mi South 5.8 mph - N/A   Overcast
9:35 AM 20.3 °F 10.6 °F 19.0 °F 95% 29.78 in 3.0 mi South 8.1 mph - N/A   Mostly Cloudy
9:55 AM 21.0 °F 11.4 °F 19.6 °F 94% 29.77 in 4.0 mi South 8.1 mph - N/A   Mostly Cloudy
10:15 AM 21.0 °F 10.6 °F 19.6 °F 94% 29.77 in 4.0 mi South 9.2 mph 17.3 mph N/A   Overcast
10:35 AM 21.0 °F 9.3 °F 19.8 °F 95% 29.76 in 4.0 mi South 11.5 mph 16.1 mph N/A   Overcast
10:55 AM 22.1 °F 11.3 °F 20.3 °F 93% 29.74 in 5.0 mi South 10.4 mph - N/A   Overcast
11:15 AM 23.7 °F 15.6 °F 19.8 °F 85% 29.72 in 5.0 mi South 6.9 mph - N/A   Mostly Cloudy
11:35 AM 25.0 °F 16.3 °F 19.6 °F 80% 29.73 in 5.0 mi SSE 8.1 mph - N/A   Mostly Cloudy
11:55 AM 25.5 °F 21.3 °F 20.3 °F 81% 29.71 in 5.0 mi South 3.5 mph - N/A   Scattered Clouds
12:15 PM 27.1 °F 18.2 °F 21.2 °F 78% 29.69 in 7.0 mi South 9.2 mph - N/A   Scattered Clouds
12:35 PM 28.0 °F 20.0 °F 22.1 °F 78% 29.67 in 7.0 mi SSE 8.1 mph - N/A   Clear
12:55 PM 29.5 °F 23.4 °F 23.0 °F 77% 29.65 in 7.0 mi SSE 5.8 mph - N/A   Clear
1:10 PM 30.0 °F 21.7 °F 23.9 °F 78% 29.64 in 7.0 mi South 9.2 mph - N/A   Clear
1:35 PM 31.3 °F 24.7 °F 24.8 °F 77% 29.63 in 7.0 mi SSE 6.9 mph 17.3 mph N/A   Clear
1:55 PM 32.0 °F 25.6 °F 25.7 °F 78% 29.62 in 5.0 mi SSE 6.9 mph - N/A   Clear
2:15 PM 31.6 °F 23.7 °F 26.2 °F 80% 29.61 in 7.0 mi SSE 9.2 mph - N/A   Clear
2:35 PM 31.6 °F 24.4 °F 26.6 °F 82% 29.60 in 5.0 mi SSE 8.1 mph - N/A   Scattered Clouds
2:55 PM 32.0 °F 24.8 °F 27.1 °F 82% 29.60 in 7.0 mi SSE 8.1 mph - N/A   Clear
3:15 PM 32.2 °F 26.7 °F 27.5 °F 83% 29.59 in 7.0 mi South 5.8 mph - N/A   Scattered Clouds
3:35 PM 32.2 °F 26.7 °F 27.5 °F 83% 29.59 in 7.0 mi South 5.8 mph - N/A   Clear
3:55 PM 32.5 °F 26.2 °F 27.5 °F 82% 29.58 in 7.0 mi South 6.9 mph - N/A   Clear
4:15 PM 32.2 °F 26.7 °F 27.5 °F 83% 29.57 in 7.0 mi South 5.8 mph - N/A   Clear
4:35 PM 32.0 °F - 27.3 °F 83% 29.58 in 7.0 mi Calm Calm - N/A   Clear
4:55 PM 31.8 °F - 27.1 °F 83% 29.57 in 7.0 mi Calm Calm - N/A   Clear
5:15 PM 30.4 °F - 26.6 °F 86% 29.57 in 7.0 mi Calm Calm - N/A   Clear
5:35 PM 25.9 °F - 25.0 °F 96% 29.57 in 3.0 mi Calm Calm - N/A   Clear
5:55 PM 22.3 °F - 21.7 °F 98% 29.56 in 0.5 mi Calm Calm - N/A   Mostly Cloudy
6:15 PM 22.1 °F - 21.4 °F 97% 29.56 in 0.2 mi Calm Calm - N/A   Overcast
6:35 PM 22.6 °F - 21.7 °F 96% 29.57 in 0.2 mi Calm Calm - N/A   Overcast
6:55 PM 19.4 °F - 17.6 °F 93% 29.58 in 1.0 mi Calm Calm - N/A   Mostly Cloudy
7:15 PM 20.5 °F - 19.4 °F 96% 29.59 in 2.5 mi Calm Calm - N/A   Clear
7:30 PM 19.4 °F - 18.3 °F 96% 29.59 in 3.0 mi Calm Calm - N/A   Clear
7:55 PM 19.8 °F - 18.7 °F 96% 29.59 in 1.8 mi Calm Calm - N/A   Unknown
8:15 PM 18.7 °F - 17.2 °F 94% 29.60 in 2.0 mi Calm Calm - N/A   Clear
8:35 PM 16.0 °F - 14.5 °F 94% 29.59 in 3.0 mi Calm Calm - N/A   Clear
8:50 PM 17.4 °F - 16.0 °F 94% 29.60 in 1.8 mi Calm Calm - N/A   Mostly Cloudy
9:15 PM 13.8 °F - 12.0 °F 93% 29.59 in 1.5 mi Calm Calm - N/A   Overcast
9:35 PM 15.6 °F - 14.0 °F 93% 29.59 in 1.0 mi Calm Calm - N/A   Overcast
9:55 PM 13.1 °F - 11.3 °F 93% 29.59 in 3.0 mi Calm Calm - N/A   Mostly Cloudy
10:15 PM 12.6 °F - 10.6 °F 92% 29.58 in 3.0 mi Calm Calm - N/A   Overcast
10:35 PM 15.8 °F - 14.2 °F 93% 29.59 in 4.0 mi Calm Calm - N/A   Overcast
10:55 PM 16.3 °F - 14.7 °F 93% 29.58 in 4.0 mi Calm Calm - N/A   Overcast
11:15 PM 18.1 °F 12.9 °F 16.7 °F 94% 29.59 in 4.0 mi West 3.5 mph - N/A   Overcast
11:35 PM 19.4 °F - 18.3 °F 96% 29.60 in 4.0 mi Calm Calm - N/A   Overcast
11:55 PM 21.2 °F 16.4 °F 20.3 °F 96% 29.60 in 4.0 mi West 3.5 mph - N/A   Overcast